Time,TemperatureF,DewpointF,PressureIn,WindDirection,WindDirectionDegrees,WindSpeedMPH,WindSpeedGustMPH,Humidity,HourlyPrecipIn,Conditions,Clouds,dailyrainin,SoftwareType,DateUTC
2013-08-02 00:02:00,58.6,52.5,30.11,NW,312,0.0,0.0,80,0.00,,,0.03,meteohub,2013-08-02 07:02:00,
2013-08-02 00:08:00,58.6,52.5,30.10,NW,312,0.0,0.0,80,0.00,,,0.00,meteohub,2013-08-02 07:08:00,
2013-08-02 00:13:00,58.6,52.2,30.11,NW,312,0.0,0.0,79,0.00,,,0.00,meteohub,2013-08-02 07:13:00,
2013-08-02 00:17:00,58.5,52.0,30.11,NW,312,0.0,0.0,79,0.00,,,0.00,meteohub,2013-08-02 07:17:00,
2013-08-02 00:23:00,58.5,52.0,30.11,NW,312,0.0,0.0,79,0.00,,,0.00,meteohub,2013-08-02 07:23:00,
2013-08-02 00:28:00,58.3,51.4,30.11,NW,312,0.0,0.0,78,0.00,,,0.00,meteohub,2013-08-02 07:28:00,
2013-08-02 00:33:00,58.3,51.4,30.10,NW,312,0.0,0.0,78,0.00,,,0.00,meteohub,2013-08-02 07:33:00,
2013-08-02 00:38:00,58.3,51.4,30.11,NW,312,0.0,0.0,78,0.00,,,0.00,meteohub,2013-08-02 07:38:00,
2013-08-02 00:43:00,58.1,50.9,30.11,NW,312,0.0,0.0,77,0.00,,,0.00,meteohub,2013-08-02 07:43:00,
2013-08-02 00:48:00,57.9,50.7,30.11,NW,312,0.0,0.0,77,0.00,,,0.00,meteohub,2013-08-02 07:48:00,
2013-08-02 00:53:00,57.9,50.4,30.10,NW,312,0.0,0.0,76,0.00,,,0.00,meteohub,2013-08-02 07:53:00,
2013-08-02 00:58:00,57.9,50.4,30.11,NW,312,0.0,0.0,76,0.00,,,0.00,meteohub,2013-08-02 07:58:00,
2013-08-02 01:03:00,57.7,49.8,30.11,NW,312,0.0,0.0,75,0.00,,,0.00,meteohub,2013-08-02 08:03:00,
2013-08-02 01:08:00,57.7,49.8,30.11,NW,312,0.0,0.0,75,0.00,,,0.00,meteohub,2013-08-02 08:08:00,
2013-08-02 01:13:00,57.7,49.5,30.10,NW,312,0.0,0.0,74,0.00,,,0.00,meteohub,2013-08-02 08:13:00,
2013-08-02 01:18:00,57.7,49.1,30.10,NW,312,0.0,0.0,73,0.00,,,0.00,meteohub,2013-08-02 08:18:00,
2013-08-02 01:23:00,57.7,49.1,30.10,NW,312,0.0,0.0,73,0.00,,,0.00,meteohub,2013-08-02 08:23:00,
2013-08-02 01:28:00,57.6,48.9,30.10,NW,312,0.0,0.0,73,0.00,,,0.00,meteohub,2013-08-02 08:28:00,
2013-08-02 01:33:00,57.6,48.6,30.10,NW,312,0.0,0.0,72,0.00,,,0.00,meteohub,2013-08-02 08:33:00,
2013-08-02 01:38:00,57.6,48.6,30.10,NW,312,0.0,0.0,72,0.00,,,0.00,meteohub,2013-08-02 08:38:00,
2013-08-02 01:43:00,57.6,48.6,30.10,NW,312,0.0,0.0,72,0.00,,,0.00,meteohub,2013-08-02 08:43:00,
2013-08-02 01:48:00,57.6,48.6,30.10,NW,312,0.0,0.0,72,0.00,,,0.00,meteohub,2013-08-02 08:48:00,
2013-08-02 01:53:00,57.4,48.4,30.10,NW,312,0.0,0.0,72,0.00,,,0.00,meteohub,2013-08-02 08:53:00,
2013-08-02 01:58:00,57.4,48.0,30.10,NW,312,0.0,0.0,71,0.00,,,0.00,meteohub,2013-08-02 08:58:00,
2013-08-02 02:03:00,57.4,48.0,30.10,NW,312,0.0,0.0,71,0.00,,,0.00,meteohub,2013-08-02 09:03:00,
2013-08-02 02:08:00,57.4,48.0,30.10,NW,312,0.0,0.0,71,0.00,,,0.00,meteohub,2013-08-02 09:08:00,
2013-08-02 02:13:00,57.2,47.5,30.10,NW,312,0.0,0.0,70,0.00,,,0.00,meteohub,2013-08-02 09:13:00,
2013-08-02 02:18:00,57.2,47.5,30.10,NW,312,0.0,0.0,70,0.00,,,0.00,meteohub,2013-08-02 09:18:00,
2013-08-02 02:23:00,57.2,47.5,30.09,NW,312,0.0,0.0,70,0.00,,,0.00,meteohub,2013-08-02 09:23:00,
2013-08-02 02:28:00,57.0,47.3,30.09,NW,312,0.0,0.0,70,0.00,,,0.00,meteohub,2013-08-02 09:28:00,
2013-08-02 02:33:00,57.0,47.7,30.09,NW,312,0.0,0.0,71,0.00,,,0.00,meteohub,2013-08-02 09:33:00,
2013-08-02 02:38:00,57.0,47.3,30.09,NW,312,0.0,0.0,70,0.00,,,0.00,meteohub,2013-08-02 09:38:00,
2013-08-02 02:43:00,57.0,47.7,30.09,NW,312,0.0,0.0,71,0.00,,,0.00,meteohub,2013-08-02 09:43:00,
2013-08-02 02:48:00,56.8,47.5,30.09,NW,312,0.0,0.0,71,0.00,,,0.00,meteohub,2013-08-02 09:48:00,
2013-08-02 02:53:00,56.8,47.5,30.09,NW,312,0.0,0.0,71,0.00,,,0.00,meteohub,2013-08-02 09:53:00,
2013-08-02 02:58:00,56.7,47.3,30.09,NW,312,0.0,0.0,71,0.00,,,0.00,meteohub,2013-08-02 09:58:00,
2013-08-02 03:03:00,56.7,47.3,30.09,NW,312,0.0,0.0,71,0.00,,,0.00,meteohub,2013-08-02 10:03:00,
2013-08-02 03:08:00,56.7,46.9,30.09,NW,312,0.0,0.0,70,0.00,,,0.00,meteohub,2013-08-02 10:08:00,
2013-08-02 03:13:00,56.5,46.8,30.09,NW,312,0.0,0.0,70,0.00,,,0.00,meteohub,2013-08-02 10:13:00,
2013-08-02 03:18:00,56.5,46.4,30.09,NW,312,0.0,0.0,69,0.00,,,0.00,meteohub,2013-08-02 10:18:00,
2013-08-02 03:23:00,56.5,46.4,30.09,NW,312,0.0,0.0,69,0.00,,,0.00,meteohub,2013-08-02 10:23:00,
2013-08-02 03:28:00,56.3,46.2,30.09,NW,312,0.0,0.0,69,0.00,,,0.00,meteohub,2013-08-02 10:28:00,
2013-08-02 03:33:00,56.1,45.7,30.09,NW,312,0.0,0.0,68,0.00,,,0.00,meteohub,2013-08-02 10:33:00,
2013-08-02 03:38:00,56.1,45.7,30.09,NW,312,0.0,0.0,68,0.00,,,0.00,meteohub,2013-08-02 10:38:00,
2013-08-02 03:43:00,56.1,45.7,30.09,NW,312,0.0,0.0,68,0.00,,,0.00,meteohub,2013-08-02 10:43:00,
2013-08-02 03:48:00,56.1,45.7,30.09,NW,312,0.0,0.0,68,0.00,,,0.00,meteohub,2013-08-02 10:48:00,
2013-08-02 03:54:00,56.1,45.3,30.09,NW,312,0.0,0.0,67,0.00,,,0.00,meteohub,2013-08-02 10:54:00,
2013-08-02 03:59:00,55.9,45.1,30.09,NW,312,0.0,0.0,67,0.00,,,0.00,meteohub,2013-08-02 10:59:00,
2013-08-02 04:04:00,55.9,44.8,30.09,NW,312,0.0,0.0,66,0.00,,,0.00,meteohub,2013-08-02 11:04:00,
2013-08-02 04:09:00,55.9,44.8,30.09,NW,312,0.0,0.0,66,0.00,,,0.00,meteohub,2013-08-02 11:09:00,
2013-08-02 04:14:00,55.9,44.4,30.10,NW,312,0.0,0.0,65,0.00,,,0.00,meteohub,2013-08-02 11:14:00,
2013-08-02 04:19:00,55.9,44.4,30.09,NW,312,0.0,0.0,65,0.00,,,0.00,meteohub,2013-08-02 11:19:00,
2013-08-02 04:24:00,56.1,44.6,30.09,NW,312,0.0,0.0,65,0.00,,,0.00,meteohub,2013-08-02 11:24:00,
2013-08-02 04:29:00,56.1,44.6,30.09,NW,312,0.0,0.0,65,0.00,,,0.00,meteohub,2013-08-02 11:29:00,
2013-08-02 04:34:00,56.1,44.1,30.09,NW,312,0.0,0.0,64,0.00,,,0.00,meteohub,2013-08-02 11:34:00,
2013-08-02 04:39:00,56.1,44.1,30.09,NW,312,0.0,0.0,64,0.00,,,0.00,meteohub,2013-08-02 11:39:00,
2013-08-02 04:44:00,56.1,44.1,30.09,NW,312,0.0,0.0,64,0.00,,,0.00,meteohub,2013-08-02 11:44:00,
2013-08-02 04:49:00,56.1,44.1,30.09,NW,312,0.0,0.0,64,0.00,,,0.00,meteohub,2013-08-02 11:49:00,
2013-08-02 04:54:00,56.1,44.1,30.09,NW,312,0.0,0.0,64,0.00,,,0.00,meteohub,2013-08-02 11:54:00,
2013-08-02 04:59:00,55.9,43.9,30.09,NW,312,0.0,0.0,64,0.00,,,0.00,meteohub,2013-08-02 11:59:00,
2013-08-02 05:04:00,56.1,44.1,30.09,NW,312,0.0,0.0,64,0.00,,,0.00,meteohub,2013-08-02 12:04:00,
2013-08-02 05:10:00,56.1,44.1,30.09,NW,312,0.0,0.0,64,0.00,,,0.00,meteohub,2013-08-02 12:10:00,
2013-08-02 05:15:00,56.1,44.1,30.09,NW,312,0.0,0.0,64,0.00,,,0.00,meteohub,2013-08-02 12:15:00,
2013-08-02 05:20:00,56.1,44.1,30.09,NW,312,0.0,0.0,64,0.00,,,0.00,meteohub,2013-08-02 12:20:00,
2013-08-02 05:25:00,56.1,44.1,30.09,NW,312,0.0,0.0,64,0.00,,,0.00,meteohub,2013-08-02 12:25:00,
2013-08-02 05:30:00,56.1,44.1,30.09,NW,312,0.0,0.0,64,0.00,,,0.00,meteohub,2013-08-02 12:30:00,
2013-08-02 05:35:00,56.1,43.7,30.09,NW,312,0.0,0.0,63,0.00,,,0.00,meteohub,2013-08-02 12:35:00,
2013-08-02 05:40:00,56.1,43.7,30.09,NW,312,0.0,0.0,63,0.00,,,0.00,meteohub,2013-08-02 12:40:00,
2013-08-02 05:45:00,56.1,43.7,30.10,NW,312,0.0,0.0,63,0.00,,,0.00,meteohub,2013-08-02 12:45:00,
2013-08-02 05:50:00,56.1,43.7,30.10,NW,312,0.0,0.0,63,0.00,,,0.03,meteohub,2013-08-02 12:50:00,
2013-08-02 05:55:00,55.9,43.5,30.10,NW,312,0.0,0.0,63,0.00,,,0.00,meteohub,2013-08-02 12:55:00,
2013-08-02 06:00:00,55.9,43.5,30.09,NW,312,0.0,0.0,63,0.00,,,0.00,meteohub,2013-08-02 13:00:00,
2013-08-02 06:05:00,55.9,43.5,30.10,NW,312,0.0,0.0,63,0.00,,,0.00,meteohub,2013-08-02 13:05:00,
2013-08-02 06:10:00,55.9,43.5,30.10,NW,312,0.0,0.0,63,0.00,,,0.00,meteohub,2013-08-02 13:10:00,
2013-08-02 06:15:00,55.9,43.5,30.10,NW,312,0.0,0.0,63,0.00,,,0.00,meteohub,2013-08-02 13:15:00,
2013-08-02 06:20:00,55.9,43.5,30.10,NW,312,0.0,0.0,63,0.00,,,0.00,meteohub,2013-08-02 13:20:00,
2013-08-02 06:25:00,55.9,43.5,30.10,NW,312,0.0,0.0,63,0.00,,,0.00,meteohub,2013-08-02 13:25:00,
2013-08-02 06:30:00,55.9,43.5,30.11,NW,312,0.0,0.0,63,0.00,,,0.00,meteohub,2013-08-02 13:30:00,
2013-08-02 06:35:00,55.9,43.5,30.11,NW,312,0.0,0.0,63,0.00,,,0.00,meteohub,2013-08-02 13:35:00,
2013-08-02 06:40:00,56.1,43.3,30.11,NW,312,0.0,0.0,62,0.00,,,0.00,meteohub,2013-08-02 13:40:00,
2013-08-02 06:45:00,56.1,43.3,30.11,NW,312,0.0,0.0,62,0.00,,,0.00,meteohub,2013-08-02 13:45:00,
2013-08-02 06:50:00,56.1,43.3,30.12,NW,312,0.0,0.0,62,0.00,,,0.00,meteohub,2013-08-02 13:50:00,
2013-08-02 06:55:00,56.1,43.3,30.12,NW,312,0.0,0.0,62,0.00,,,0.00,meteohub,2013-08-02 13:55:00,
2013-08-02 07:00:00,56.1,43.3,30.12,NW,312,0.0,0.0,62,0.00,,,0.00,meteohub,2013-08-02 14:00:00,
2013-08-02 07:05:00,56.1,43.3,30.12,NW,312,0.0,0.0,62,0.00,,,0.00,meteohub,2013-08-02 14:05:00,
2013-08-02 07:10:00,56.3,43.5,30.12,NW,312,0.0,0.0,62,0.00,,,0.00,meteohub,2013-08-02 14:10:00,
2013-08-02 07:15:00,56.5,43.7,30.12,NW,312,0.0,0.0,62,0.00,,,0.00,meteohub,2013-08-02 14:15:00,
2013-08-02 07:20:00,56.5,43.7,30.12,NW,312,0.0,0.0,62,0.00,,,0.00,meteohub,2013-08-02 14:20:00,
2013-08-02 07:25:00,56.5,43.7,30.12,NW,312,0.0,0.0,62,0.00,,,0.00,meteohub,2013-08-02 14:25:00,
2013-08-02 07:30:00,56.7,43.7,30.12,NW,312,0.0,0.0,62,0.00,,,0.00,meteohub,2013-08-02 14:30:00,
2013-08-02 07:35:00,56.7,43.7,30.12,NW,312,0.0,0.0,62,0.00,,,0.00,meteohub,2013-08-02 14:35:00,
2013-08-02 07:40:00,56.8,44.4,30.12,NW,312,0.0,0.0,63,0.00,,,0.00,meteohub,2013-08-02 14:40:00,
2013-08-02 07:45:00,56.8,44.4,30.13,NW,312,0.0,0.0,63,0.00,,,0.00,meteohub,2013-08-02 14:45:00,
2013-08-02 07:50:00,57.0,45.0,30.13,NW,312,0.0,0.0,64,0.00,,,0.00,meteohub,2013-08-02 14:50:00,
2013-08-02 07:55:00,57.4,45.7,30.13,NW,312,0.0,0.0,65,0.00,,,0.00,meteohub,2013-08-02 14:55:00,
2013-08-02 08:00:00,57.6,46.2,30.13,NW,312,0.0,0.0,66,0.00,,,0.00,meteohub,2013-08-02 15:00:00,
2013-08-02 08:05:00,57.6,46.8,30.13,NW,312,0.0,0.0,67,0.00,,,0.00,meteohub,2013-08-02 15:05:00,
2013-08-02 08:10:00,57.7,46.9,30.13,NW,312,0.0,0.0,67,0.00,,,0.00,meteohub,2013-08-02 15:10:00,
2013-08-02 08:15:00,57.9,48.9,30.13,NNE,15,0.0,0.0,72,0.00,,,0.00,meteohub,2013-08-02 15:15:00,
2013-08-02 08:20:00,58.3,50.0,30.13,NNE,15,0.0,0.0,74,0.00,,,0.00,meteohub,2013-08-02 15:20:00,
2013-08-02 08:26:00,58.5,51.3,30.13,NNE,25,0.0,1.0,77,0.00,,,0.00,meteohub,2013-08-02 15:26:00,
2013-08-02 08:31:00,58.8,51.6,30.12,NNE,25,0.0,1.0,77,0.00,,,0.00,meteohub,2013-08-02 15:31:00,
2013-08-02 08:36:00,59.2,52.3,30.13,NNE,27,0.0,1.0,78,0.00,,,0.00,meteohub,2013-08-02 15:36:00,
2013-08-02 08:41:00,59.4,52.9,30.13,NNE,27,0.0,0.0,79,0.00,,,0.00,meteohub,2013-08-02 15:41:00,
2013-08-02 08:46:00,59.4,53.2,30.13,NNE,27,0.0,0.0,80,0.00,,,0.00,meteohub,2013-08-02 15:46:00,
2013-08-02 08:51:00,59.5,53.4,30.13,NNE,27,0.0,0.0,80,0.00,,,0.00,meteohub,2013-08-02 15:51:00,
2013-08-02 08:56:00,59.5,53.4,30.13,NNE,27,0.0,0.0,80,0.00,,,0.00,meteohub,2013-08-02 15:56:00,
2013-08-02 09:01:00,59.7,54.0,30.13,NNE,27,0.0,0.0,81,0.00,,,0.00,meteohub,2013-08-02 16:01:00,
2013-08-02 09:06:00,59.7,54.0,30.12,NW,325,0.0,1.0,81,0.00,,,0.00,meteohub,2013-08-02 16:06:00,
2013-08-02 09:11:00,60.1,54.5,30.13,NW,325,2.0,2.0,82,0.00,,,0.00,meteohub,2013-08-02 16:11:00,
2013-08-02 09:16:00,60.3,54.3,30.13,NW,325,0.0,3.0,81,0.00,,,0.00,meteohub,2013-08-02 16:16:00,
2013-08-02 09:22:00,60.4,54.9,30.13,NW,325,0.0,3.0,82,0.00,,,0.00,meteohub,2013-08-02 16:22:00,
2013-08-02 09:27:00,60.4,54.9,30.13,NW,325,0.0,3.0,82,0.00,,,0.00,meteohub,2013-08-02 16:27:00,
2013-08-02 09:31:00,60.6,55.0,30.12,NW,325,0.0,1.0,82,0.00,,,0.00,meteohub,2013-08-02 16:31:00,
2013-08-02 09:37:00,61.0,55.4,30.12,NW,325,0.0,1.0,82,0.00,,,0.00,meteohub,2013-08-02 16:37:00,
2013-08-02 09:42:00,61.3,55.8,30.12,NW,324,0.0,1.0,82,0.00,,,0.00,meteohub,2013-08-02 16:42:00,
2013-08-02 09:47:00,61.5,55.9,30.12,West,267,0.0,2.0,82,0.00,,,0.00,meteohub,2013-08-02 16:47:00,
2013-08-02 09:51:00,62.1,56.5,30.12,WNW,293,0.0,3.0,82,0.00,,,0.00,meteohub,2013-08-02 16:51:00,
2013-08-02 09:57:00,62.2,56.3,30.12,NW,306,0.0,3.0,81,0.00,,,0.00,meteohub,2013-08-02 16:57:00,
2013-08-02 10:02:00,62.8,56.8,30.12,NW,306,0.0,3.0,81,0.00,,,0.00,meteohub,2013-08-02 17:02:00,
2013-08-02 10:07:00,63.1,56.8,30.12,NW,306,0.0,3.0,80,0.00,,,0.00,meteohub,2013-08-02 17:07:00,
2013-08-02 10:12:00,63.1,56.5,30.12,West,277,0.0,2.0,79,0.00,,,0.00,meteohub,2013-08-02 17:12:00,
2013-08-02 10:17:00,63.1,56.5,30.12,West,277,0.0,2.0,79,0.00,,,0.00,meteohub,2013-08-02 17:17:00,
2013-08-02 10:22:00,63.3,56.3,30.12,West,277,0.0,3.0,78,0.00,,,0.00,meteohub,2013-08-02 17:22:00,
2013-08-02 10:27:00,63.1,56.1,30.12,West,277,0.0,3.0,78,0.00,,,0.00,meteohub,2013-08-02 17:27:00,
2013-08-02 10:33:00,63.1,56.5,30.12,West,277,0.0,3.0,79,0.00,,,0.00,meteohub,2013-08-02 17:33:00,
2013-08-02 10:38:00,63.1,55.8,30.12,West,277,0.0,0.0,77,0.00,,,0.00,meteohub,2013-08-02 17:38:00,
2013-08-02 10:43:00,63.1,56.1,30.12,West,280,0.0,0.0,78,0.00,,,0.00,meteohub,2013-08-02 17:43:00,
2013-08-02 10:48:00,63.3,56.7,30.12,WNW,294,0.0,1.0,79,0.00,,,0.00,meteohub,2013-08-02 17:48:00,
2013-08-02 10:53:00,63.1,56.1,30.12,WNW,294,0.0,3.0,78,0.00,,,0.00,meteohub,2013-08-02 17:53:00,
2013-08-02 10:58:00,63.1,55.8,30.12,WNW,294,0.0,3.0,77,0.00,,,0.00,meteohub,2013-08-02 17:58:00,
2013-08-02 11:03:00,63.3,57.0,30.12,WNW,294,0.0,1.0,80,0.00,,,0.00,meteohub,2013-08-02 18:03:00,
2013-08-02 11:08:00,63.5,56.1,30.12,WNW,294,0.0,1.0,77,0.00,,,0.00,meteohub,2013-08-02 18:08:00,
2013-08-02 11:13:00,63.7,56.7,30.11,WNW,294,0.0,1.0,78,0.00,,,0.00,meteohub,2013-08-02 18:13:00,
2013-08-02 11:18:00,63.7,55.9,30.11,WNW,294,0.0,0.0,76,0.00,,,0.00,meteohub,2013-08-02 18:18:00,
2013-08-02 11:23:00,64.0,55.9,30.11,WSW,255,0.0,0.0,75,0.00,,,0.00,meteohub,2013-08-02 18:23:00,
2013-08-02 11:28:00,64.4,55.6,30.11,North,350,0.0,2.0,73,0.00,,,0.00,meteohub,2013-08-02 18:28:00,
2013-08-02 11:33:00,64.2,54.7,30.11,East,82,0.0,3.0,71,0.00,,,0.00,meteohub,2013-08-02 18:33:00,
2013-08-02 11:38:00,64.6,55.8,30.11,ESE,117,0.0,4.0,73,0.00,,,0.00,meteohub,2013-08-02 18:38:00,
2013-08-02 11:43:00,64.8,54.7,30.12,NW,314,0.0,4.0,70,0.00,,,0.00,meteohub,2013-08-02 18:43:00,
2013-08-02 11:48:00,65.5,55.8,30.11,WNW,292,0.0,4.0,71,0.00,,,0.00,meteohub,2013-08-02 18:48:00,
2013-08-02 11:53:00,65.8,55.0,30.11,SSW,206,0.0,4.0,68,0.00,,,0.00,meteohub,2013-08-02 18:53:00,
2013-08-02 11:58:00,66.0,55.6,30.11,NW,307,0.0,4.0,69,0.00,,,0.00,meteohub,2013-08-02 18:58:00,
2013-08-02 12:03:00,66.2,55.8,30.11,West,262,0.0,4.0,69,0.00,,,0.00,meteohub,2013-08-02 19:03:00,
2013-08-02 12:08:00,66.4,54.7,30.12,SW,221,0.0,5.0,66,0.00,,,0.00,meteohub,2013-08-02 19:08:00,
2013-08-02 12:13:00,66.6,55.6,30.12,West,271,0.0,5.0,68,0.00,,,0.00,meteohub,2013-08-02 19:13:00,
2013-08-02 12:18:00,66.7,55.8,30.12,NNW,343,0.0,5.0,68,0.00,,,0.00,meteohub,2013-08-02 19:18:00,
2013-08-02 12:23:00,66.9,55.6,30.12,West,265,0.0,5.0,67,0.00,,,0.00,meteohub,2013-08-02 19:23:00,
2013-08-02 12:28:00,66.7,55.0,30.12,WNW,286,2.0,5.0,66,0.00,,,0.00,meteohub,2013-08-02 19:28:00,
2013-08-02 12:36:00,66.7,55.8,30.12,NW,306,0.0,5.0,68,0.00,,,0.00,meteohub,2013-08-02 19:36:00,
2013-08-02 12:41:00,66.6,56.1,30.12,NW,321,0.0,5.0,69,0.00,,,0.00,meteohub,2013-08-02 19:41:00,
2013-08-02 12:46:00,66.6,56.1,30.12,NW,316,3.0,5.0,69,0.00,,,0.00,meteohub,2013-08-02 19:46:00,
2013-08-02 12:51:00,66.4,55.9,30.12,NW,309,0.0,6.0,69,0.00,,,0.00,meteohub,2013-08-02 19:51:00,
2013-08-02 12:56:00,66.2,56.1,30.12,West,273,0.0,8.0,70,0.00,,,0.00,meteohub,2013-08-02 19:56:00,
2013-08-02 13:01:00,66.4,55.9,30.12,NW,311,0.0,8.0,69,0.00,,,0.00,meteohub,2013-08-02 20:01:00,
2013-08-02 13:06:00,66.4,55.9,30.12,NNW,339,3.0,4.0,69,0.00,,,0.00,meteohub,2013-08-02 20:06:00,
2013-08-02 13:11:00,66.2,55.8,30.12,North,355,0.0,6.0,69,0.00,,,0.00,meteohub,2013-08-02 20:11:00,
2013-08-02 13:17:00,66.0,55.2,30.12,NW,312,6.0,6.0,68,0.00,,,0.00,meteohub,2013-08-02 20:17:00,
2013-08-02 13:22:00,66.0,55.6,30.12,WNW,301,0.0,7.0,69,0.00,,,0.00,meteohub,2013-08-02 20:22:00,
2013-08-02 13:27:00,66.0,55.6,30.12,NW,312,1.0,7.0,69,0.00,,,0.00,meteohub,2013-08-02 20:27:00,
2013-08-02 13:32:00,65.8,55.8,30.12,WNW,302,0.0,7.0,70,0.00,,,0.00,meteohub,2013-08-02 20:32:00,
2013-08-02 13:37:00,65.8,55.4,30.12,NW,319,0.0,5.0,69,0.00,,,0.00,meteohub,2013-08-02 20:37:00,
2013-08-02 13:42:00,65.8,55.4,30.12,WNW,299,0.0,5.0,69,0.00,,,0.00,meteohub,2013-08-02 20:42:00,
2013-08-02 13:48:00,66.0,56.3,30.12,WNW,300,0.0,5.0,71,0.00,,,0.00,meteohub,2013-08-02 20:48:00,
2013-08-02 13:53:00,66.2,56.1,30.12,WNW,303,5.0,5.0,70,0.00,,,0.00,meteohub,2013-08-02 20:53:00,
2013-08-02 13:58:00,66.4,56.3,30.13,West,269,2.0,5.0,70,0.00,,,0.00,meteohub,2013-08-02 20:58:00,
2013-08-02 14:03:00,66.7,56.3,30.13,WSW,258,0.0,5.0,69,0.00,,,0.00,meteohub,2013-08-02 21:03:00,
2013-08-02 14:08:00,67.3,56.8,30.12,NW,311,0.0,5.0,69,0.00,,,0.00,meteohub,2013-08-02 21:08:00,
2013-08-02 14:13:00,67.3,56.3,30.12,West,265,0.0,4.0,68,0.00,,,0.00,meteohub,2013-08-02 21:13:00,
2013-08-02 14:18:00,67.5,56.1,30.12,West,274,4.0,5.0,67,0.00,,,0.00,meteohub,2013-08-02 21:18:00,
2013-08-02 14:23:00,67.6,56.7,30.13,WNW,283,0.0,5.0,68,0.00,,,0.00,meteohub,2013-08-02 21:23:00,
2013-08-02 14:28:00,67.6,56.7,30.12,WNW,293,0.0,6.0,68,0.00,,,0.00,meteohub,2013-08-02 21:28:00,
2013-08-02 14:33:00,68.0,56.7,30.12,West,269,0.0,6.0,67,0.00,,,0.00,meteohub,2013-08-02 21:33:00,
2013-08-02 14:38:00,68.2,57.2,30.13,West,271,0.0,6.0,68,0.00,,,0.00,meteohub,2013-08-02 21:38:00,
2013-08-02 14:43:00,68.2,57.2,30.12,NW,323,0.0,5.0,68,0.00,,,0.00,meteohub,2013-08-02 21:43:00,
2013-08-02 14:48:00,68.4,56.5,30.13,West,271,2.0,6.0,66,0.00,,,0.00,meteohub,2013-08-02 21:48:00,
2013-08-02 14:53:00,68.2,56.3,30.13,NNW,329,0.0,6.0,66,0.00,,,0.00,meteohub,2013-08-02 21:53:00,
2013-08-02 14:58:00,67.8,56.5,30.13,NW,306,0.0,6.0,67,0.00,,,0.00,meteohub,2013-08-02 21:58:00,
2013-08-02 15:03:00,67.5,56.5,30.13,WSW,253,0.0,6.0,68,0.00,,,0.00,meteohub,2013-08-02 22:03:00,
2013-08-02 15:08:00,67.3,56.8,30.13,NW,313,0.0,6.0,69,0.00,,,0.00,meteohub,2013-08-02 22:08:00,
2013-08-02 15:13:00,66.9,56.5,30.13,NNW,331,3.0,5.0,69,0.00,,,0.00,meteohub,2013-08-02 22:13:00,
2013-08-02 15:18:00,66.7,56.3,30.13,West,272,0.0,4.0,69,0.00,,,0.00,meteohub,2013-08-02 22:18:00,
2013-08-02 15:23:00,66.7,56.7,30.13,NW,317,0.0,4.0,70,0.00,,,0.00,meteohub,2013-08-02 22:23:00,
2013-08-02 15:28:00,66.7,57.4,30.13,West,276,4.0,4.0,72,0.00,,,0.00,meteohub,2013-08-02 22:28:00,
2013-08-02 15:33:00,66.7,56.7,30.13,West,281,0.0,4.0,70,0.00,,,0.00,meteohub,2013-08-02 22:33:00,
2013-08-02 15:38:00,66.7,57.0,30.13,NW,308,0.0,4.0,71,0.00,,,0.00,meteohub,2013-08-02 22:38:00,
2013-08-02 15:43:00,66.6,56.8,30.13,WNW,301,0.0,4.0,71,0.00,,,0.00,meteohub,2013-08-02 22:43:00,
2013-08-02 15:48:00,66.4,56.7,30.13,West,267,0.0,5.0,71,0.00,,,0.00,meteohub,2013-08-02 22:48:00,
2013-08-02 15:53:00,66.6,57.2,30.12,NW,304,0.0,5.0,72,0.00,,,0.00,meteohub,2013-08-02 22:53:00,
2013-08-02 15:58:00,66.7,57.0,30.12,WNW,299,0.0,3.0,71,0.00,,,0.00,meteohub,2013-08-02 22:58:00,
2013-08-02 16:03:00,67.1,57.4,30.12,West,275,0.0,3.0,71,0.00,,,0.00,meteohub,2013-08-02 23:03:00,
2013-08-02 16:08:00,67.3,57.2,30.12,West,265,0.0,6.0,70,0.00,,,0.00,meteohub,2013-08-02 23:08:00,
2013-08-02 16:13:00,67.5,57.0,30.12,WNW,296,0.0,6.0,69,0.00,,,0.00,meteohub,2013-08-02 23:13:00,
2013-08-02 16:18:00,67.5,57.4,30.12,NW,304,3.0,6.0,70,0.00,,,0.00,meteohub,2013-08-02 23:18:00,
2013-08-02 16:23:00,67.1,57.0,30.12,WSW,254,0.0,5.0,70,0.00,,,0.00,meteohub,2013-08-02 23:23:00,
2013-08-02 16:28:00,66.7,57.0,30.12,WNW,296,0.0,6.0,71,0.00,,,0.00,meteohub,2013-08-02 23:28:00,
2013-08-02 16:33:00,66.6,57.2,30.12,WNW,303,1.0,6.0,72,0.00,,,0.00,meteohub,2013-08-02 23:33:00,
2013-08-02 16:38:00,66.4,57.9,30.12,NNW,333,1.0,6.0,74,0.00,,,0.00,meteohub,2013-08-02 23:38:00,
2013-08-02 16:43:00,66.4,57.4,30.12,NW,311,0.0,6.0,73,0.00,,,0.00,meteohub,2013-08-02 23:43:00,
2013-08-02 16:48:00,66.6,58.8,30.12,NW,317,3.0,6.0,76,0.00,,,0.00,meteohub,2013-08-02 23:48:00,
2013-08-02 16:53:00,66.6,58.5,30.12,NW,317,0.0,5.0,75,0.00,,,0.00,meteohub,2013-08-02 23:53:00,
2013-08-02 16:58:00,66.6,58.5,30.12,NW,311,2.0,4.0,75,0.00,,,0.00,meteohub,2013-08-02 23:58:00,
2013-08-02 17:04:00,66.4,57.9,30.12,NW,325,0.0,4.0,74,0.00,,,0.00,meteohub,2013-08-03 00:04:00,
2013-08-02 17:08:00,66.0,58.3,30.12,NW,321,2.0,3.0,76,0.00,,,0.00,meteohub,2013-08-03 00:08:00,
2013-08-02 17:13:00,66.0,57.6,30.12,West,270,0.0,3.0,74,0.00,,,0.00,meteohub,2013-08-03 00:13:00,
2013-08-02 17:19:00,65.8,57.7,30.12,West,276,1.0,4.0,75,0.00,,,0.00,meteohub,2013-08-03 00:19:00,
2013-08-02 17:24:00,65.7,57.6,30.12,NW,309,0.0,4.0,75,0.00,,,0.00,meteohub,2013-08-03 00:24:00,
2013-08-02 17:29:00,65.3,57.9,30.12,NW,315,0.0,4.0,77,0.00,,,0.00,meteohub,2013-08-03 00:29:00,
2013-08-02 17:34:00,64.9,57.9,30.12,NW,317,0.0,3.0,78,0.00,,,0.00,meteohub,2013-08-03 00:34:00,
2013-08-02 17:39:00,64.8,58.1,30.12,NW,315,0.0,3.0,79,0.00,,,0.00,meteohub,2013-08-03 00:39:00,
2013-08-02 17:44:00,64.2,57.9,30.12,NW,313,0.0,4.0,80,0.00,,,0.00,meteohub,2013-08-03 00:44:00,
2013-08-02 17:49:00,63.9,57.6,30.12,NW,314,0.0,4.0,80,0.01,,,0.00,meteohub,2013-08-03 00:49:00,
2013-08-02 17:54:00,63.7,57.7,30.12,WNW,301,1.0,5.0,81,0.01,,,0.01,meteohub,2013-08-03 00:54:00,
2013-08-02 17:59:00,63.3,57.4,30.12,WNW,301,0.0,5.0,81,0.01,,,0.01,meteohub,2013-08-03 00:59:00,
2013-08-02 18:04:00,63.1,57.2,30.12,WNW,301,0.0,5.0,81,0.01,,,0.01,meteohub,2013-08-03 01:04:00,
2013-08-02 18:09:00,63.0,57.0,30.12,WNW,301,0.0,1.0,81,0.01,,,0.01,meteohub,2013-08-03 01:09:00,
2013-08-02 18:14:00,62.8,56.8,30.12,WNW,301,0.0,1.0,81,0.01,,,0.01,meteohub,2013-08-03 01:14:00,
2013-08-02 18:19:00,62.6,56.3,30.12,WNW,301,0.0,0.0,80,0.01,,,0.01,meteohub,2013-08-03 01:19:00,
2013-08-02 18:24:00,62.4,56.1,30.12,WNW,301,0.0,0.0,80,0.01,,,0.01,meteohub,2013-08-03 01:24:00,
2013-08-02 18:29:00,62.2,56.3,30.12,WNW,301,0.0,0.0,81,0.01,,,0.01,meteohub,2013-08-03 01:29:00,
2013-08-02 18:34:00,62.2,55.9,30.12,WNW,301,0.0,0.0,80,0.01,,,0.01,meteohub,2013-08-03 01:34:00,
2013-08-02 18:39:00,62.2,55.6,30.12,WNW,301,0.0,0.0,79,0.01,,,0.01,meteohub,2013-08-03 01:39:00,
2013-08-02 18:44:00,62.2,55.6,30.12,WNW,301,0.0,0.0,79,0.01,,,0.01,meteohub,2013-08-03 01:44:00,
2013-08-02 18:49:00,62.1,55.4,30.12,WNW,301,0.0,0.0,79,0.00,,,0.01,meteohub,2013-08-03 01:49:00,
2013-08-02 18:54:00,62.1,55.4,30.12,WNW,301,0.0,0.0,79,0.00,,,0.01,meteohub,2013-08-03 01:54:00,
2013-08-02 18:59:00,62.1,55.4,30.12,WNW,301,0.0,0.0,79,0.00,,,0.01,meteohub,2013-08-03 01:59:00,
2013-08-02 19:04:00,61.9,55.2,30.12,WNW,301,0.0,0.0,79,0.00,,,0.01,meteohub,2013-08-03 02:04:00,
2013-08-02 19:09:00,61.9,54.9,30.12,WNW,301,0.0,0.0,78,0.00,,,0.01,meteohub,2013-08-03 02:09:00,
2013-08-02 19:14:00,61.9,55.2,30.12,WNW,301,0.0,0.0,79,0.00,,,0.01,meteohub,2013-08-03 02:14:00,
2013-08-02 19:19:00,61.7,54.9,30.12,WNW,301,0.0,0.0,78,0.00,,,0.01,meteohub,2013-08-03 02:19:00,
2013-08-02 19:24:00,61.7,54.9,30.12,WNW,301,0.0,0.0,78,0.00,,,0.01,meteohub,2013-08-03 02:24:00,
2013-08-02 19:29:00,61.5,54.7,30.12,WNW,301,0.0,0.0,78,0.00,,,0.01,meteohub,2013-08-03 02:29:00,
2013-08-02 19:34:00,61.5,54.3,30.12,WNW,301,0.0,0.0,77,0.00,,,0.01,meteohub,2013-08-03 02:34:00,
2013-08-02 19:39:00,61.5,54.3,30.12,WNW,301,0.0,0.0,77,0.00,,,0.01,meteohub,2013-08-03 02:39:00,
2013-08-02 19:45:00,61.5,54.3,30.12,WNW,301,0.0,0.0,77,0.00,,,0.01,meteohub,2013-08-03 02:45:00,
2013-08-02 19:50:00,61.3,54.1,30.12,WNW,301,0.0,0.0,77,0.00,,,0.01,meteohub,2013-08-03 02:50:00,
2013-08-02 19:55:00,61.3,53.8,30.12,WNW,301,0.0,0.0,76,0.00,,,0.01,meteohub,2013-08-03 02:55:00,
2013-08-02 20:00:00,61.3,53.8,30.12,WNW,301,0.0,0.0,76,0.00,,,0.01,meteohub,2013-08-03 03:00:00,
2013-08-02 20:05:00,61.2,53.6,30.12,WNW,301,0.0,0.0,76,0.00,,,0.01,meteohub,2013-08-03 03:05:00,
2013-08-02 20:09:00,61.2,53.2,30.12,WNW,301,0.0,0.0,75,0.00,,,0.01,meteohub,2013-08-03 03:09:00,
2013-08-02 20:15:00,61.2,53.2,30.12,WNW,301,0.0,0.0,75,0.00,,,0.01,meteohub,2013-08-03 03:15:00,
2013-08-02 20:20:00,61.2,52.9,30.12,WNW,301,0.0,0.0,74,0.00,,,0.01,meteohub,2013-08-03 03:20:00,
2013-08-02 20:25:00,61.0,52.7,30.12,WNW,301,0.0,0.0,74,0.00,,,0.01,meteohub,2013-08-03 03:25:00,
2013-08-02 20:30:00,61.0,52.7,30.12,WNW,301,0.0,0.0,74,0.00,,,0.01,meteohub,2013-08-03 03:30:00,
2013-08-02 20:35:00,61.0,53.1,30.12,WNW,301,0.0,0.0,75,0.00,,,0.01,meteohub,2013-08-03 03:35:00,
2013-08-02 20:40:00,60.8,52.5,30.13,WNW,301,0.0,0.0,74,0.00,,,0.01,meteohub,2013-08-03 03:40:00,
2013-08-02 20:45:00,60.8,52.2,30.13,WNW,301,0.0,0.0,73,0.00,,,0.01,meteohub,2013-08-03 03:45:00,
2013-08-02 20:50:00,60.8,52.2,30.13,WNW,301,0.0,0.0,73,0.00,,,0.01,meteohub,2013-08-03 03:50:00,
2013-08-02 20:55:00,60.6,52.0,30.13,WNW,301,0.0,0.0,73,0.00,,,0.01,meteohub,2013-08-03 03:55:00,
2013-08-02 21:00:00,60.6,51.6,30.13,WNW,301,0.0,0.0,72,0.00,,,0.01,meteohub,2013-08-03 04:00:00,
2013-08-02 21:01:00,60.6,51.6,30.13,WNW,301,0.0,0.0,72,0.00,,,0.01,meteohub,2013-08-03 04:01:00,
2013-08-02 21:02:00,60.6,51.6,30.13,WNW,301,0.0,0.0,72,0.00,,,0.01,meteohub,2013-08-03 04:02:00,
2013-08-02 21:07:00,60.6,51.1,30.13,WNW,301,0.0,0.0,71,0.00,,,0.01,meteohub,2013-08-03 04:07:00,
2013-08-02 21:12:00,60.6,51.1,30.13,WNW,301,0.0,0.0,71,0.00,,,0.01,meteohub,2013-08-03 04:12:00,
2013-08-02 21:17:00,60.4,51.1,30.13,WNW,301,0.0,0.0,71,0.00,,,0.01,meteohub,2013-08-03 04:17:00,
2013-08-02 21:22:00,60.4,50.5,30.14,WNW,301,0.0,0.0,70,0.00,,,0.01,meteohub,2013-08-03 04:22:00,
2013-08-02 21:27:00,60.4,50.5,30.14,WNW,301,0.0,0.0,70,0.01,,,0.02,meteohub,2013-08-03 04:27:00,
2013-08-02 21:32:00,60.3,50.0,30.14,WNW,301,0.0,0.0,69,0.01,,,0.02,meteohub,2013-08-03 04:32:00,
2013-08-02 21:37:00,60.3,50.0,30.14,NW,315,0.0,0.0,69,0.01,,,0.02,meteohub,2013-08-03 04:37:00,
2013-08-02 21:42:00,60.1,50.2,30.14,WNW,289,0.0,4.0,70,0.01,,,0.02,meteohub,2013-08-03 04:42:00,
2013-08-02 21:47:00,59.9,50.5,30.14,WNW,289,0.0,4.0,71,0.01,,,0.02,meteohub,2013-08-03 04:47:00,
2013-08-02 21:52:00,59.7,50.4,30.14,WNW,289,0.0,4.0,71,0.01,,,0.02,meteohub,2013-08-03 04:52:00,
2013-08-02 21:58:00,59.5,50.2,30.14,WNW,289,0.0,1.0,71,0.01,,,0.02,meteohub,2013-08-03 04:58:00,
2013-08-02 22:02:00,59.5,50.2,30.14,WNW,289,0.0,3.0,71,0.01,,,0.02,meteohub,2013-08-03 05:02:00,
2013-08-02 22:08:00,59.5,50.2,30.14,WNW,289,0.0,3.0,71,0.01,,,0.02,meteohub,2013-08-03 05:08:00,
2013-08-02 22:13:00,59.4,49.6,30.14,WNW,289,0.0,0.0,70,0.01,,,0.02,meteohub,2013-08-03 05:13:00,
2013-08-02 22:18:00,59.4,49.1,30.14,WNW,289,0.0,0.0,69,0.01,,,0.02,meteohub,2013-08-03 05:18:00,
2013-08-02 22:23:00,59.4,49.1,30.14,WNW,289,0.0,0.0,69,0.01,,,0.02,meteohub,2013-08-03 05:23:00,
2013-08-02 22:28:00,59.2,49.1,30.14,WNW,289,0.0,0.0,69,0.00,,,0.02,meteohub,2013-08-03 05:28:00,
2013-08-02 22:33:00,59.2,48.6,30.14,WNW,289,0.0,0.0,68,0.00,,,0.02,meteohub,2013-08-03 05:33:00,
2013-08-02 22:38:00,59.2,48.6,30.14,WNW,289,0.0,0.0,68,0.00,,,0.02,meteohub,2013-08-03 05:38:00,
2013-08-02 22:43:00,59.2,48.2,30.14,WNW,289,0.0,0.0,67,0.00,,,0.02,meteohub,2013-08-03 05:43:00,
2013-08-02 22:48:00,59.2,48.2,30.14,WNW,289,0.0,0.0,67,0.00,,,0.02,meteohub,2013-08-03 05:48:00,
2013-08-02 22:53:00,59.0,48.0,30.14,WNW,289,0.0,0.0,67,0.00,,,0.02,meteohub,2013-08-03 05:53:00,
2013-08-02 22:58:00,59.0,47.7,30.13,WNW,289,0.0,0.0,66,0.00,,,0.02,meteohub,2013-08-03 05:58:00,
2013-08-02 23:03:00,58.8,47.8,30.13,WNW,289,0.0,0.0,67,0.00,,,0.02,meteohub,2013-08-03 06:03:00,
2013-08-02 23:08:00,58.6,47.7,30.13,WNW,289,0.0,0.0,67,0.00,,,0.02,meteohub,2013-08-03 06:08:00,
2013-08-02 23:13:00,58.6,47.7,30.13,WNW,289,0.0,0.0,67,0.00,,,0.02,meteohub,2013-08-03 06:13:00,
2013-08-02 23:18:00,58.6,47.7,30.13,WNW,289,0.0,0.0,67,0.01,,,0.03,meteohub,2013-08-03 06:18:00,
2013-08-02 23:23:00,58.5,47.5,30.13,WNW,289,0.0,0.0,67,0.01,,,0.03,meteohub,2013-08-03 06:23:00,
2013-08-02 23:28:00,58.5,47.1,30.13,WNW,289,0.0,0.0,66,0.01,,,0.03,meteohub,2013-08-03 06:28:00,
2013-08-02 23:33:00,58.5,47.1,30.13,WNW,289,0.0,0.0,66,0.01,,,0.03,meteohub,2013-08-03 06:33:00,
2013-08-02 23:38:00,58.5,47.1,30.13,WNW,289,0.0,0.0,66,0.01,,,0.03,meteohub,2013-08-03 06:38:00,
2013-08-02 23:43:00,58.5,46.8,30.13,WNW,289,0.0,0.0,65,0.01,,,0.03,meteohub,2013-08-03 06:43:00,
2013-08-02 23:48:00,58.3,46.6,30.13,WNW,289,0.0,0.0,65,0.01,,,0.03,meteohub,2013-08-03 06:48:00,
2013-08-02 23:53:00,58.3,46.6,30.13,WNW,289,0.0,0.0,65,0.01,,,0.03,meteohub,2013-08-03 06:53:00,
2013-08-02 23:58:00,58.3,46.6,30.13,WNW,289,0.0,0.0,65,0.01,,,0.03,meteohub,2013-08-03 06:58:00,